Regional Weather Roundup
Issued by NWS

Home | Current Version | Previous Version | Graphics & Text | Print | Product List | Glossary Off
Versions: 1 2 3 4 5 6 7 8 9 10 11 12 13 14 15 16 17 18 19 20 21 22 23 24 25 26 27 28 29 30 31 32 33 34 35 36 37 38 39 40 41 42 43 44 45 46 47 48 49 50

000
ASUS45 KBOU 021307
RWRCO

WEATHER ROUNDUP FOR COLORADO
NATIONAL WEATHER SERVICE DENVER/BOULDER CO
600 AM MST MON MAR 02 2015

NOTE: "FAIR" INDICATES FEW OR NO CLOUDS BELOW 12000 FEET WITH NO
SIGNIFICANT WEATHER AND/OR OBSTRUCTIONS TO VISIBILITY.

COZ001>005-013-030-031-021400-
...NORTHWEST COLORADO...

CITY           SKY/WX    TMP DP  RH WIND       PRES   REMARKS
CRAIG          LGT SNOW  32  29  88 E9        29.88F FOG     WCI  24
HAYDEN         CLOUDY    28  27  93 SE9       29.88F WCI  20
MEEKER         MIX PCPN  30  28  92 CALM      29.86F
MOUNT WERNER   NOT AVBL
STEAMBOAT SPGS CLOUDY    27  26  97 N5        29.88F WCI  22
WALDEN         CLOUDY    28  27  93 CALM      29.88F
$$

COZ006>008-011-021400-
...WEST CENTRAL VALLEYS...

CITY           SKY/WX    TMP DP  RH WIND       PRES   REMARKS
GRAND JUNCTION CLOUDY    36  35  96 E7        29.85F
MONTROSE       CLOUDY    40  31  70 S8        29.91F
EAGLE          CLOUDY    30  28  93 CALM      29.94F VSB 1/2
RIFLE          LGT RAIN  33  31  92 CALM      29.89F
DELTA          CLOUDY    39  37  93 NE6       29.89F
NUCLA          CLOUDY    41  34  75 S6        29.93F
$$

COZ017>023-064>068-021400-
...SOUTHWEST COLORADO...

CITY           SKY/WX    TMP DP  RH WIND       PRES   REMARKS
DURANGO        CLOUDY    33  32  96 E5        30.01F WCI  29
CORTEZ         MOCLDY    42  36  79 S12G18    29.95F
PAGOSA SPRINGS CLOUDY    35  35 100 CALM      30.05S
TELLURIDE      LGT SNOW  37  22  52 S22G48    29.96F
WOLF CREEK PAS CLOUDY    21  21 100 SW23G36   30.10F WCI   5
$$

COZ009-010-012-014-032>034-037-058>063-021400-
...CENTRAL COLORADO...

CITY           SKY/WX    TMP DP  RH WIND       PRES   REMARKS
ASPEN          LGT SNOW  32  31  96 CALM      29.91S VSB 3/4
BUENA VISTA    CLOUDY    21  18  88 CALM      30.00S FOG
COPPER MTN     LGT SNOW  28  21  74 S22       29.97F WCI  15
BERTHOUD PASS  LGT SNOW  19  14  79 SW16      29.99S VSB 3/4 WCI   5
COTTONWOOD PAS LGT SNOW  28  27  93 S3        29.98S
GUNNISON       CLOUDY    27  23  86 CALM      30.02S
KREMMLING      LGT SNOW  30  28  93 CALM      29.94S
LEADVILLE      CLOUDY    17  15  92 CALM      29.94F
SALIDA         CLOUDY    22  19  87 CALM      30.08F
SUNLIGHT       LGT SNOW  30  28  93 CALM      29.89F
WILKERSON PASS CLOUDY    25  23  93 SW12G17   30.00S FOG     WCI  14
$$

COZ069>075-021400-
...SAN LUIS VALLEY/SANGRE DE CRISTO MOUNTAINS...

CITY           SKY/WX    TMP DP  RH WIND       PRES   REMARKS
ALAMOSA        PTCLDY    31  26  82 S16       30.01S WCI  20
LA VETA PASS   PTCLDY    27  23  86 S15G26    30.06S WCI  15
SAGUACHE       CLOUDY    32  32 100 SE5       30.02F FOG     WCI  27
$$

COZ035-036-038>040-021400-
...NORTHERN COLORADO FRONT RANGE...

CITY           SKY/WX    TMP DP  RH WIND       PRES   REMARKS
DENVER INTL AP MOCLDY    15  12  88 S3        29.99F FOG
DMNS CITY PARK   N/A     17  14  86 S5        30.00F WCI  10
AURORA         PTCLDY    13  11  94 S7        29.99F WCI   3
FRONT RANGE AP NOT AVBL
ERIE MUNI ARPT CLOUDY    22  19  89 W3        30.02S FOG
BOULDER MUN AP MOCLDY    19  18  93 S3        30.00F FOG
CENTENNIAL     PTCLDY    15  12  88 SW3       29.98F FOG
BROOMFIELD     CLOUDY    19  16  86 CALM      30.00F
FORT COLLINS   CLOUDY    21  18  86 N8        30.02F WCI  12
LONGMONT       CLOUDY    25  20  82 CALM      30.03F
$$

COZ041-046-047-076>085-087-088-021400-
...PIKES PEAK/PALMER DIVIDE AND SOUTHERN FOOTHILLS...

CITY           SKY/WX    TMP DP  RH WIND       PRES   REMARKS
COLO. SPRINGS  CLOUDY    20  19  96 S8        30.04F FOG     WCI  10
A. F. ACADEMY  CLOUDY    18  17  93 S8        30.00F WCI   8
ELLICOTT       NOT AVBL
FALCON         FOG       19  17  95 SW12      30.01F VSB 1/4 WCI   6
FORT CARSON    CLOUDY    19  18  93 S8        30.04F WCI   9
LIMON          CLOUDY    20  18  92 S21       30.05F WCI   4
MONUMENT HILL  CLOUDY    18  14  86 SW18      29.94S FOG     WCI   2
TRINIDAD       CLOUDY    24  22  91 CALM      30.03F FOG
$$

COZ042>045-048>051-090-091-021400-
...NORTHEAST COLORADO...

CITY           SKY/WX    TMP DP  RH WIND       PRES   REMARKS
GREELEY ARPT   PTCLDY    21  14  73 E5        30.00F WCI  15
AKRON          CLOUDY    25  19  78 S16       30.08F WCI  12
BURLINGTON     PTCLDY    22  19  89 S12       30.14F WCI  10
WRAY           CLOUDY    28  21  74 SE12      30.18S WCI  18
STERLING       CLOUDY    30  21  69 S13       30.10F WCI  20
HOLYOKE        NOT AVBL
FORT MORGAN    CLOUDY    27  19  74 SE14G20   30.06F WCI  15
$$

COZ086-089-092>099-021400-
...SOUTHEAST COLORADO...

CITY           SKY/WX    TMP DP  RH WIND       PRES   REMARKS
PUEBLO         CLOUDY    24  22  91 CALM      30.10F
LA JUNTA       CLOUDY    28  24  85 SE7       30.11F WCI  21
LAMAR          CLOUDY    26  23  88 SE10      30.15F FOG     WCI  16
SPRINGFIELD      N/A     23  21  92 S10       30.14F WCI  12
$$


USA.gov is the U.S. government's official web portal to all federal, state and local government web resources and services.